When you browse on this site, cookies collect data to enhance your experience and personalize the content and advertising you see.
Visit our Privacy Policy to learn more. By continuing to use the site, you agree to this use of cookies and data.
  • In Portugal
  • List of Countries
  • For 7 days
  • Water Temperature
  • Satellite Maps
  • Weather Map
  • Weather Widgets
  • user-avatar
    Login

    Hourly Weather Kostyushino

    Today, 23 July, Tuesday

    Time Temperature Precipitation Wind Pressure Humidity
    00:00 +14°C° 0 mm 0 mps 747 mmHg 89%
    01:00 +13°C° 0 mm 0 mps 747 mmHg 90%
    02:00 +13°C° 0 mm 0 mps 747 mmHg 90%
    03:00 +13°C° 0 mm 0 mps 747 mmHg 90%
    04:00 +14°C° 0 mm 0 mps 747 mmHg 89%
    05:00 +15°C° 0 mm 0 mps 747 mmHg 88%
    06:00 +18°C° 0 mm 1 mps 746 mmHg 82%
    07:00 +20°C° 0 mm 1 mps 746 mmHg 76%
    08:00 +21°C° 0 mm 1 mps 746 mmHg 70%
    09:00 +22°C° 0 mm 1 mps 746 mmHg 64%
    10:00 +23°C° 0 mm 1 mps 746 mmHg 59%
    11:00 +24°C° 0 mm 1 mps 746 mmHg 53%
    12:00 +25°C° 0 mm 1 mps 746 mmHg 52%
    13:00 +25°C° 0 mm 2 mps 746 mmHg 52%
    14:00 +25°C° 0 mm 2 mps 746 mmHg 51%
    15:00 +25°C° 0 mm 1 mps 746 mmHg 55%
    16:00 +24°C° 0 mm 1 mps 746 mmHg 59%
    17:00 +24°C° 0 mm 1 mps 746 mmHg 64%
    18:00 +22°C° 0 mm 1 mps 745 mmHg 68%
    19:00 +20°C° 0 mm 1 mps 745 mmHg 73%
    20:00 +18°C° 0 mm 1 mps 745 mmHg 78%
    21:00 +15°C° 0 mm 0 mps 745 mmHg 81%
    22:00 +15°C° 0 mm 0 mps 745 mmHg 85%
    23:00 +14°C° 0 mm 0 mps 746 mmHg 88%

    Tomorrow, 24 July, Wednesday

    Time Temperature Precipitation Wind Pressure Humidity
    00:00 +14°C° 0 mm 0 mps 746 mmHg 89%
    01:00 +14°C° 0 mm 1 mps 746 mmHg 90%
    02:00 +14°C° 0 mm 1 mps 746 mmHg 90%
    03:00 +14°C° 0 mm 1 mps 746 mmHg 90%
    04:00 +15°C° 0 mm 1 mps 746 mmHg 89%
    05:00 +15°C° 0 mm 1 mps 746 mmHg 88%
    06:00 +16°C° 0 mm 1 mps 746 mmHg 84%
    07:00 +18°C° 0 mm 2 mps 746 mmHg 79%
    08:00 +19°C° 0 mm 2 mps 746 mmHg 75%
    09:00 +20°C° 0.1 mm 2 mps 746 mmHg 73%
    10:00 +21°C° 0.1 mm 2 mps 747 mmHg 70%
    11:00 +22°C° 0.1 mm 3 mps 747 mmHg 68%
    12:00 +22°C° 0.4 mm 3 mps 747 mmHg 71%
    13:00 +21°C° 0.4 mm 3 mps 746 mmHg 74%
    14:00 +21°C° 0.4 mm 3 mps 746 mmHg 77%
    15:00 +21°C° 0.4 mm 3 mps 746 mmHg 81%
    16:00 +20°C° 0.4 mm 2 mps 746 mmHg 85%
    17:00 +19°C° 0.4 mm 2 mps 746 mmHg 89%
    18:00 +18°C° 0.6 mm 2 mps 746 mmHg 91%
    19:00 +17°C° 0.6 mm 2 mps 746 mmHg 94%
    20:00 +17°C° 0.6 mm 2 mps 746 mmHg 96%
    21:00 +16°C° 0.2 mm 2 mps 746 mmHg 97%
    22:00 +16°C° 0.2 mm 1 mps 747 mmHg 97%
    23:00 +16°C° 0.2 mm 1 mps 747 mmHg 98%

    Day after tomorrow, 25 July, Thursday

    Time Temperature Precipitation Wind Pressure Humidity
    00:00 +16°C° 2.4 mm 2 mps 746 mmHg 98%
    01:00 +16°C° 2.4 mm 2 mps 746 mmHg 98%
    02:00 +16°C° 2.4 mm 3 mps 746 mmHg 99%
    03:00 +15°C° 1.4 mm 4 mps 746 mmHg 98%
    04:00 +17°C° 1.4 mm 4 mps 746 mmHg 98%
    05:00 +16°C° 1.4 mm 5 mps 746 mmHg 97%
    06:00 +17°C° 0.4 mm 4 mps 747 mmHg 97%
    07:00 +17°C° 0.4 mm 4 mps 747 mmHg 97%
    08:00 +17°C° 0.4 mm 3 mps 747 mmHg 97%
    09:00 +17°C° 0.3 mm 4 mps 747 mmHg 97%
    10:00 +18°C° 0.3 mm 4 mps 748 mmHg 97%
    11:00 +18°C° 0.3 mm 4 mps 748 mmHg 96%
    12:00 +18°C° 0.3 mm 4 mps 748 mmHg 95%
    13:00 +18°C° 0.3 mm 4 mps 749 mmHg 94%
    14:00 +19°C° 0.3 mm 4 mps 749 mmHg 93%
    15:00 +19°C° 0 mm 4 mps 749 mmHg 92%
    16:00 +19°C° 0 mm 3 mps 749 mmHg 91%
    17:00 +19°C° 0 mm 3 mps 750 mmHg 89%
    18:00 +19°C° 0 mm 3 mps 750 mmHg 91%
    19:00 +18°C° 0 mm 2 mps 750 mmHg 93%
    20:00 +18°C° 0 mm 2 mps 750 mmHg 95%
    21:00 +17°C° 0 mm 2 mps 751 mmHg 96%
    22:00 +17°C° 0 mm 2 mps 751 mmHg 96%
    23:00 +17°C° 0 mm 2 mps 751 mmHg 96%

    26 July, Friday

    Time Temperature Precipitation Wind Pressure Humidity
    00:00 +16°C° 0 mm 2 mps 751 mmHg 96%
    01:00 +16°C° 0 mm 2 mps 751 mmHg 96%
    02:00 +16°C° 0 mm 2 mps 751 mmHg 96%
    03:00 +16°C° 0 mm 2 mps 751 mmHg 96%
    04:00 +17°C° 0 mm 2 mps 751 mmHg 95%
    05:00 +17°C° 0 mm 2 mps 752 mmHg 94%
    06:00 +19°C° 0 mm 3 mps 752 mmHg 89%
    07:00 +20°C° 0 mm 3 mps 752 mmHg 84%
    08:00 +22°C° 0 mm 3 mps 752 mmHg 78%
    09:00 +24°C° 0 mm 3 mps 752 mmHg 72%
    10:00 +26°C° 0 mm 4 mps 752 mmHg 67%
    11:00 +27°C° 0 mm 4 mps 752 mmHg 61%
    12:00 +27°C° 0.1 mm 4 mps 752 mmHg 60%
    13:00 +27°C° 0.1 mm 4 mps 751 mmHg 60%
    14:00 +28°C° 0.1 mm 4 mps 751 mmHg 59%
    15:00 +27°C° 0.1 mm 3 mps 751 mmHg 62%
    16:00 +27°C° 0.1 mm 3 mps 751 mmHg 66%
    17:00 +27°C° 0.1 mm 2 mps 751 mmHg 69%
    18:00 +25°C° 0 mm 2 mps 751 mmHg 74%
    19:00 +23°C° 0 mm 2 mps 751 mmHg 78%
    20:00 +20°C° 0 mm 2 mps 751 mmHg 83%
    21:00 +20°C° 0 mm 2 mps 751 mmHg 85%
    22:00 +19°C° 0 mm 2 mps 751 mmHg 87%
    23:00 +18°C° 0 mm 2 mps 751 mmHg 89%

    27 July, Saturday

    Time Temperature Precipitation Wind Pressure Humidity
    00:00 +18°C° 0 mm 2 mps 751 mmHg 90%
    01:00 +17°C° 0 mm 2 mps 751 mmHg 90%
    02:00 +17°C° 0 mm 2 mps 750 mmHg 90%
    03:00 +17°C° 0 mm 2 mps 750 mmHg 90%
    04:00 +17°C° 0 mm 2 mps 750 mmHg 89%
    05:00 +18°C° 0 mm 2 mps 750 mmHg 89%
    06:00 +20°C° 0 mm 2 mps 750 mmHg 84%
    07:00 +21°C° 0 mm 2 mps 750 mmHg 79%
    08:00 +24°C° 0 mm 2 mps 750 mmHg 75%
    09:00 +25°C° 0.7 mm 3 mps 749 mmHg 73%
    10:00 +26°C° 0.7 mm 3 mps 749 mmHg 71%
    11:00 +27°C° 0.7 mm 3 mps 749 mmHg 69%
    12:00 +27°C° 0.1 mm 3 mps 749 mmHg 64%
    13:00 +28°C° 0.1 mm 3 mps 748 mmHg 59%
    14:00 +28°C° 0.1 mm 3 mps 748 mmHg 54%
    15:00 +28°C° 0 mm 3 mps 747 mmHg 58%
    16:00 +28°C° 0 mm 2 mps 747 mmHg 62%
    17:00 +27°C° 0 mm 2 mps 746 mmHg 66%
    18:00 +26°C° 0 mm 2 mps 746 mmHg 70%
    19:00 +24°C° 0 mm 2 mps 746 mmHg 74%
    20:00 +21°C° 0 mm 2 mps 746 mmHg 77%
    21:00 +21°C° 0.1 mm 3 mps 746 mmHg 81%
    22:00 +20°C° 0.1 mm 3 mps 746 mmHg 85%
    23:00 +20°C° 0.1 mm 4 mps 746 mmHg 89%

    28 July, Sunday

    Time Temperature Precipitation Wind Pressure Humidity
    00:00 +17°C° 0 mm 5 mps 746 mmHg 88%
    01:00 +16°C° 0 mm 5 mps 747 mmHg 88%
    02:00 +15°C° 0 mm 5 mps 747 mmHg 87%
    03:00 +14°C° 0 mm 4 mps 747 mmHg 86%
    04:00 +13°C° 0 mm 4 mps 747 mmHg 84%
    05:00 +12°C° 0 mm 3 mps 748 mmHg 83%
    06:00 +13°C° 0 mm 3 mps 748 mmHg 76%
    07:00 +13°C° 0 mm 4 mps 748 mmHg 70%
    08:00 +14°C° 0 mm 4 mps 748 mmHg 64%
    09:00 +14°C° 0 mm 4 mps 748 mmHg 60%
    10:00 +15°C° 0 mm 4 mps 748 mmHg 56%
    11:00 +17°C° 0 mm 4 mps 749 mmHg 52%
    12:00 +16°C° 0 mm 5 mps 748 mmHg 50%
    13:00 +17°C° 0 mm 5 mps 748 mmHg 49%
    14:00 +17°C° 0 mm 5 mps 748 mmHg 47%
    15:00 +17°C° 0 mm 5 mps 748 mmHg 50%
    16:00 +17°C° 0 mm 4 mps 748 mmHg 53%
    17:00 +17°C° 0 mm 4 mps 748 mmHg 55%
    18:00 +14°C° 0 mm 3 mps 748 mmHg 61%
    19:00 +12°C° 0 mm 3 mps 749 mmHg 66%
    20:00 +10°C° 0 mm 2 mps 749 mmHg 72%
    21:00 +9°C° 0 mm 2 mps 749 mmHg 74%
    22:00 +8°C° 0 mm 2 mps 749 mmHg 76%
    23:00 +8°C° 0 mm 1 mps 749 mmHg 78%
    Show more